Погода в Монине

Россия / Псковская область     56°37′47″N   29°34′37″E
темп.,
°C
ветер,
м/с
пор.,
м/с
влажн.,
%
обл.,
%
осадки,
мм/ч
давл.,
гПа
погр.,
м
10 мая, пн
пн1000:00+3ю257755 0.0 102369
03:00+3ю3117784 0.0 1024232
06:00+5ю41270100 0.0 1024309
09:00+9ю5116288 0.0 1024447
12:00+15ю57497 0.0 1024964
15:00+17ююз564888 0.0 10241243
18:00+17ю3557100 0.0 10231209
21:00+11ююв3108657 0.0 1025229
11 мая, вт
вт1100:00+8ю3109094 0.0 1026201
03:00+7ю3109055 0.0 1027180
06:00+7ююв31080100 0.0 1026217
09:00+13ю37565 0.0 1027437
12:00+17ююв45438 0.0 1026965
15:00+19юв45405 0.0 10251099
18:00+18юв36505 0.0 1024923
21:00+11вюв35705 0.0 102476
12 мая, ср
ср1200:00+8юв310797 0.0 1025175
03:00+8юв398699 0.0 1024168
06:00+9юв389111 0.0 1024163
09:00+15юв46765 0.0 1024541
12:00+18юв57551 0.0 10231161
15:00+19вюв46420 0.0 10221390
18:00+19в26525 0.0 10191256
21:00+14ссв3118177 0.0 1016305
13 мая, чт
чт1300:00+13всв5129628 1.4 1014933
03:00+7вюв6149278 1.8 1016936
06:00+8вюв51384100 0.0 10151143
09:00+9вюв61380100 0.0 1015881
12:00+9вюв61184100 0.1 10141151
15:00+10юв5107855 0.3 10131037
18:00+11ююв497980 0.4 10131147
21:00+10вюв41286100 0.5 1013676
14 мая, пт
пт1400:00+8юв41390100 0.0 1013507
03:00+9юв5148433 0.0 1012548
06:00+9юв513858 0.0 1012458
09:00+14юв510675 0.0 1011666
12:00+15ююв496264 0.0 10111221
15:00+17юв366149 0.0 1011872
18:00+18юв366295 0.0 10091057
21:00+12вюв27938 0.1 1009141